Portada
METAR-TAF:

METAR-TAF

Aeroports :

Sirri Island, Iran

latitud: 25-54-34N, longitud: 054-32-22E, altitud: 13 m

Observació

L'informe es va fer fa 28 minuts, a les 06:00 UTC
Vent 20 kt del Est
Temperatura 27°C
Humitat 48%
Pressió 1020 hPa
Visibilitat 10 km o més
Escasses núvols a una alçada de 2500 ft

METAR: OIBS 260600Z 09020KT 9999 FEW025 27/15 Q1020

Hora: 09:58 (06:28 UTC)


TAF: manca

Observacions i pronòstics meteorològics de més de 4000 aeroports (METAR i TAF).

Les estacions disponibles són els punts grocs i vermells al mapa.

Posi el ratolí al punt desitjat per veure el nom de l'estació.

Feu clic per veure les observacions i els pronòstics meteorològics.

Per canviar el mapa: feu clic els botons verds amb una creu de color negre per apropar; al botó verd amb un guió per allunyar la imatge; o en les fletxes verdes per a mapes adjacents.


METAR-TAF: